Lid_Strength_Index
1 4 5 5 11 12 15 13 11 10 10 9 9 9 9 8 9 12 3 1 1 0 -0 -0 -1 -1 -1 -1 -1 -1 -1 -1 -1 -1 -1 -1 -1 -1 -2 -2 -2 -2 -2 -2 -2 -2 -2 -1 -1
3 4 5 8 14 17 17 12 12 11 10 9 9 8 8 10 6 6 4 1 0 0 -0 -0 -0 -1 -1 -1 -1 -1 -1 -1 -1 -1 -1 -2 -2 -2 -2 -2 -2 -2 -2 -2 -2 -2 -2 -1 -1
5 5 7 10 14 17 17 13 12 11 10 10 9 7 8 8 5 5 4 1 0 0 0 0 -0 -1 -1 -1 -1 -1 -1 -2 -1 -1 -2 -2 -2 -2 -2 -2 -2 -2 -2 -2 -2 -2 -1 -1 -1
7 7 9 12 15 13 13 13 12 12 10 9 10 10 6 6 5 3 1 0 1 1 0 0 -0 -1 -1 -1 -1 -1 -1 -2 -1 -1 -2 -2 -2 -2 -2 -2 -2 -2 -2 -2 -2 -1 -1 -1 -1
9 10 14 16 15 13 12 13 13 12 12 10 10 10 8 6 7 4 1 1 2 2 1 0 -0 -1 -1 -1 -1 -1 -1 -1 -2 -2 -2 -2 -2 -2 -2 -2 -2 -2 -2 -1 -1 -1 -1 -1 -1
12 13 17 18 17 14 14 12 13 13 12 11 11 12 8 7 9 6 1 2 1 2 1 0 1 0 -0 -1 -1 -1 -1 -1 -1 -2 -2 -2 -2 -2 -2 -2 -2 -2 -1 -1 -1 -1 -1 -1 -1
13 16 18 19 17 15 13 12 13 13 12 11 10 10 8 9 8 7 2 2 2 2 1 1 1 1 1 0 0 -0 -1 -1 -1 -1 -1 -1 -1 -2 -2 -2 -2 -2 -1 -1 -1 -1 -1 -1 -1
13 14 17 18 18 17 13 12 12 12 12 10 8 10 11 9 7 7 2 1 2 2 1 1 1 0 -0 0 1 1 0 -0 -1 -1 -0 -0 -0 -1 -1 -1 -2 -2 -1 -1 -1 -1 -1 -1 -1
12 16 18 17 16 15 12 13 11 10 12 11 9 9 8 7 7 6 6 6 3 1 2 1 1 1 0 -0 1 2 1 1 1 0 1 1 1 0 0 -0 -1 -2 -2 -2 -1 -1 -1 -1 -1
14 17 16 14 13 14 12 13 12 12 12 11 10 8 7 7 8 8 7 7 6 5 3 2 1 1 0 -0 0 0 0 0 0 0 1 1 2 1 1 1 -0 -1 -1 -1 -2 -1 -1 -0 1
14 16 13 13 11 11 11 12 11 12 13 12 12 10 8 8 8 8 7 6 6 5 3 1 0 0 0 0 -0 -0 1 1 1 1 1 3 3 2 2 2 1 0 1 1 1 1 1 1 2
14 12 12 11 10 11 11 11 12 11 12 9 10 9 9 9 9 8 7 6 5 5 4 4 2 0 0 -0 -0 -0 0 1 2 2 1 3 3 2 3 2 2 1 1 2 2 2 3 3 3
14 13 11 10 10 11 10 11 12 12 10 9 9 9 9 9 8 8 7 6 5 5 4 5 3 2 0 0 -0 -0 0 1 1 2 2 3 2 2 3 3 2 2 2 2 2 3 3 3 3
12 12 12 11 11 10 11 11 11 11 9 10 10 10 9 9 8 8 7 6 6 4 4 3 3 3 2 0 0 0 0 1 1 2 2 2 1 2 2 2 2 2 2 2 2 3 3 3 3
12 14 13 12 11 11 11 13 12 10 10 10 10 10 9 9 8 8 7 6 5 4 4 4 3 2 1 0 1 0 -0 -0 1 1 2 2 1 2 2 2 2 2 2 2 3 3 3 3 3
14 15 17 13 11 10 12 16 11 10 11 11 10 9 8 8 7 7 5 5 4 4 4 4 3 2 2 1 0 0 0 0 0 1 1 1 1 1 2 2 2 2 2 2 3 3 3 2 2
16 19 18 15 11 11 13 16 11 10 11 11 10 9 8 8 7 7 5 5 4 4 4 4 3 3 1 0 0 0 0 0 1 1 1 1 1 1 1 1 2 2 2 3 3 2 3 3 3
20 19 17 17 14 12 14 13 12 11 11 11 10 9 8 8 8 6 6 6 5 5 4 4 4 3 1 0 0 0 0 1 1 1 1 1 1 2 1 2 2 2 3 3 3 3 2 2 3
15 16 18 16 13 13 14 13 12 12 11 10 10 10 9 9 8 7 6 6 5 5 4 3 3 4 2 1 2 2 2 1 1 1 1 1 1 2 2 2 2 2 3 2 2 2 3 3 2
16 18 18 16 13 13 13 15 13 12 12 10 10 10 9 9 9 8 7 6 6 6 5 4 3 3 3 2 1 1 1 1 1 1 1 1 2 2 2 2 2 2 2 2 2 2 3 2 2
17 19 20 17 14 12 15 17 16 13 12 10 9 9 9 10 10 9 9 8 7 7 7 5 4 3 3 3 3 1 1 1 1 1 1 1 1 1 2 2 3 3 2 2 2 2 2 3 3
18 15 15 16 16 21 16 22 21 16 13 12 12 10 11 10 10 10 10 8 8 8 7 6 5 4 3 2 2 2 3 3 2 2 1 1 1 2 1 2 2 2 3 2 1 1 2 3 3
17 14 15 16 17 15 20 23 21 16 16 14 13 11 11 11 11 11 10 9 7 7 8 7 5 4 4 4 3 2 2 2 2 1 2 2 2 2 1 1 2 2 2 2 4 4 4 4 4
14 15 16 16 17 23 22 22 22 21 17 15 13 13 12 11 11 11 10 9 9 7 7 7 7 5 5 5 4 5 4 4 5 5 5 6 5 5 4 4 4 4 4 4 5 5 5 5 5
15 18 25 25 25 23 19 21 19 16 14 13 13 14 13 12 12 12 11 11 10 9 9 8 8 8 6 6 6 5 6 5 5 6 6 7 6 6 5 5 5 4 4 4 4 4 5 5 5
17 18 23 26 25 23 18 21 18 14 13 12 14 15 13 13 12 12 12 11 11 11 10 10 9 9 8 7 7 7 6 6 7 7 7 7 7 7 6 6 6 6 5 5 5 5 6 5 5
17 19 17 19 23 22 21 18 16 14 15 15 15 15 15 14 13 13 12 13 13 12 11 11 11 10 9 9 8 8 8 8 8 8 7 8 7 7 7 7 7 7 7 7 7 7 7 7 7
17 15 20 21 27 26 22 20 19 16 15 15 16 16 15 14 14 13 13 13 13 12 12 12 11 11 11 10 10 10 10 10 10 9 9 9 9 8 8 8 8 8 8 8 8 8 8 9 10
17 18 17 18 19 22 24 21 16 16 14 15 16 15 14 14 14 14 13 12 12 13 13 12 12 12 12 11 11 11 11 11 11 11 11 11 10 10 10 10 10 10 10 10 10 10 10 11 11
17 18 17 21 22 20 20 20 15 15 14 15 16 15 14 14 14 14 13 13 13 13 13 13 13 12 12 11 11 11 11 11 12 12 12 11 11 11 11 11 11 11 12 12 12 12 11 11 11